Regional Weather Roundup
Issued by NWS State College, PA

Home | Current Version | Previous Version | Graphics & Text | Print | Product List | Glossary On
Versions: 1 2 3 4 5 6 7 8 9 10 11 12 13 14 15 16 17 18 19 20 21 22 23 24 25 26 27 28 29 30 31 32 33 34 35 36 37 38 39 40 41 42 43 44 45 46 47 48 49 50
000
ASUS41 KCTP 231203
RWRCTP

REGIONAL WEATHER ROUNDUP
NATIONAL WEATHER SERVICE STATE COLLEGE PA
800 AM EDT MON OCT 23 2017

Note: "fair" indicates few or no clouds below 12,000 feet with no
significant weather and/or obstructions to visibility.

* = STATION THAT DOES NOT REPORT PRECIPITATION /E.G. RAIN...SNOW...ETC/
    THUNDER OR FOG.

PAZ002>004-007>009-013>016-020>023-029>032-231300-
WESTERN PENNSYLVANIA

CITY           SKY/WX    TMP DP  RH WIND       PRES   REMARKS
ERIE           CLOUDY    62  52  69 S14       30.02F
MEADVILLE      CLOUDY    58  52  80 VRB6      30.06F
FRANKLIN*      CLOUDY    57  52  83 SE10      30.08F
NEW CASTLE     PTSUNNY   60  53  77 VRB3      30.06F
BEAVER COUNTY  NOT AVBL
BUTLER*        CLOUDY    60  52  74 SE9       30.08F
PITTSBURGH INT LGT RAIN  60  53  77 SE10      30.06F
PITTSBURGH     MOCLDY    61  50  67 SE9       30.07F
INDIANA*       PTCLDY    61  54  77 S13       30.14F
LATROBE        MOCLDY    61  54  77 SE6       30.11F
WASHINGTON CO* RAIN      57  53  86 E8        30.08F
$$

PAZ004>006-010>012-017>019-024>028-033>037-041-042-045-046-049>053-231300-
CENTRAL PENNSYLVANIA

CITY           SKY/WX    TMP DP  RH WIND       PRES   REMARKS
BRADFORD       CLOUDY    55  51  86 SE10      30.14F
DUBOIS         CLOUDY    55  50  83 SE12      30.12F
CLEARFIELD     CLOUDY    51  50  96 NE6       30.18S
JOHNSTOWN      CLOUDY    56  52  86 S9        30.16F
ALTOONA        PTCLDY    59  54  83 S7        30.19F
STATE COLLEGE  MOCLDY    55  52  88 SE13      30.20F
WILLIAMSPORT   CLOUDY    61  55  81 NE5       30.22S
SELINSGROVE    CLOUDY    56  54  93 CALM      30.24S
FT INDIANTOWN  FOG       58  58 100 CALM      30.26R VSB 1
CAPITAL CITY   CLOUDY    60  57  89 SE9       30.24F FOG
HARRISBURG     FOG       59  59 100 CALM      30.24F VSB 1/2
YORK           FOG       57  57 100 E5        30.24F VSB 1/2
$$

PAZ038>040-043-044-047-048-054-055-060>062-067>071-231300-
EASTERN PENNSYLVANIA

CITY           SKY/WX    TMP DP  RH WIND       PRES   REMARKS
SCRANTON       MOCLDY    57  53  86 NE3       30.26F
MOUNT POCONO   FOG       56  56 100 S8        30.29F VSB 1/4
ALLENTOWN      CLOUDY    62  58  86 E7        30.28F FOG
QUAKERTOWN*    CLOUDY    59  59 100 CALM      30.28F VSB 1
READING        CLOUDY    58  57  97 CALM      30.26S
LANCASTER      FOG       59  59 100 CALM      30.26S VSB 1/4
COATESVILLE    FOG       61  61 100 CALM      30.28S VSB<1/4
POTTSTOWN      FOG       59  59 100 CALM      30.29S VSB 1/4
BLUE BELL      CLOUDY    59  59 100 CALM      30.29F VSB<1/4
DOYLESTOWN     FOG       58  58 100 CALM      30.28S VSB 1/2
WILLOW GROVE   NOT AVBL
NORTH PHILA    FOG       63  61  93 E3        30.30S VSB 1/4
PHILADELPHIA   CLOUDY    63  61  93 E6        30.28S FOG
$$




USA.gov is the U.S. government's official web portal to all federal, state and local government web resources and services.